Tracking 29059 objects as of 17-Jun-2024
HD Live streaming from Space Station
objects crossing your sky now

OBJECT AG

Track OBJECT AG now!
10-day predictions


NORAD ID: 57034
Int'l Code: 2023-085AG
Perigee: 508.7 km
Apogee: 524.2 km
Inclination: 97.5 °
Period: 94.8 minutes
Semi major axis: 6887 km
RCS: Unknown
Launch date: June 15, 2023
Source: People's Republic of China (PRC)
Launch site: Taiyaun Space Center, China (TSC)
Your satellite tracking list
Your tracking list is empty




NASA's NSSDC Master Catalog

Two Line Element Set (TLE):
1 57034U 23085AG  24168.93499411  .00016714  00000-0  80322-3 0  9995
2 57034  97.4706 273.0864 0011278 106.6617 253.5856 15.18841425 55597
Source of the keplerian elements: AFSPC